Location: Newark
(34.9756°N, 138.3828°E)
Time: 01:31:15
(UTC+00:00)

N. Korean satellite - Pass Details

Date: 12 December 2019
Orbit: 454 x 507 km, 97.2° (Epoch: 23 January)

Event Time Altitude Azimuth Distance (km) Brightness Sun altitude
Rises 19:54:50 0° 26° (NNE) 2,517 10.4 -21.9°
Reaches altitude 10° 19:57:13 10° 41° (NE) 1,626 9.5 -21.4°
Maximum altitude 20:00:03 23° 96° (E) 1,030 9.0 -20.9°
Drops below altitude 10° 20:02:49 10° 150° (SSE) 1,597 9.8 -20.3°
Sets 20:05:08 0° 166° (SSE) 2,460 10.5 -19.9°
